Simultaneous Nadir Overpasses (SNOs) Predictions

Prediction of SNOs between GOES-15 and NPP Satellite Orbit:

Table of predicted SNOs for the next 14.0 days since TLE Epoch: 5/5/2017
Index Date Time (GOES-15) GOES-15 Lat,Lon NPP Lat,Lon Distance(km) Time Diff (sec)
1 05/05/2017 22:11:23 -0.08,-135.38 0.83,-131.39 454.93 80
2 05/07/2017 10:30:30 0.07,-135.30 0.39,-136.65 154.20 80
3 05/08/2017 10:14:26 0.07,-135.28 -0.62,-132.12 360.15 80
4 05/09/2017 22:33:42 -0.06,-135.30 -0.56,-137.42 242.83 80
5 05/10/2017 22:17:38 -0.07,-135.28 0.45,-132.89 271.20 80
6 05/12/2017 10:36:46 0.06,-135.19 0.72,-138.17 338.95 80
7 05/13/2017 10:20:41 0.06,-135.16 -0.30,-133.64 174.62 80
8 05/14/2017 22:39:58 -0.05,-135.17 -0.88,-138.94 429.75 80
9 05/15/2017 22:23:52 -0.06,-135.14 0.08,-134.40 83.60 80
10 05/18/2017 10:24:16 0.05,-135.01 0.07,-135.14 14.85 80
11 05/19/2017 10:08:11 0.06,-134.97 -0.89,-130.60 498.00 80




NCC Satellite Simultaneous Nadir Overpasses (SNOs) Prediction Service
